| time (UTC) | temp C | wind direction | speed KPH | gust KPH | rain 1hr cm | rain 24hr cm | rain mn cm | humidity % | barometer mb |
| 20260504173441 | 23 | 73 | 27.4 | 0.0 | 0.00 | 0.00 | 0.00 | 49 | 1017.1 |
| 20260504172931 | 23 | 129 | 35.4 | 0.0 | 0.00 | 0.00 | 0.00 | 49 | 1017.2 |
| 20260504172420 | 23 | 263 | 14.5 | 0.0 | 0.00 | 0.00 | 0.00 | 50 | 1017.3 |
| 20260504171910 | 23 | 93 | 24.1 | 0.0 | 0.00 | 0.00 | 0.00 | 50 | 1017.4 |
| 20260504171359 | 23 | 103 | 37.0 | 0.0 | 0.00 | 0.00 | 0.00 | 50 | 1017.4 |
| 20260504170849 | 23 | 45 | 54.7 | 0.0 | 0.00 | 0.00 | 0.00 | 50 | 1017.3 |
| 20260504170338 | 23 | 95 | 22.5 | 0.0 | 0.00 | 0.00 | 0.00 | 50 | 1017.6 |
| 20260504160134 | 22 | 72 | 46.7 | 0.0 | 0.00 | 0.00 | 0.00 | 51 | 1018.6 |
| 20260504150949 | 21 | 90 | 40.2 | 0.0 | 0.00 | 0.00 | 0.00 | 53 | 1019.4 |
| 20260504150440 | 21 | 45 | 69.2 | 0.0 | 0.00 | 0.00 | 0.00 | 53 | 1019.5 |
| 20260504141254 | 19 | 63 | 56.3 | 0.0 | 0.00 | 0.00 | 0.00 | 53 | 1020.2 |
| 20260504140743 | 19 | 45 | 53.1 | 0.0 | 0.00 | 0.00 | 0.00 | 53 | 1020.3 |
| 20260504140232 | 19 | 67 | 61.2 | 0.0 | 0.00 | 0.00 | 0.00 | 52 | 1020.5 |
| 20260504130538 | 18 | 45 | 46.7 | 0.0 | 0.00 | 0.00 | 0.00 | 52 | 1021.4 |
| 20260504120234 | 17 | 45 | 49.9 | 0.0 | 0.00 | 0.00 | 0.00 | 50 | 1021.9 |
| 20260504110539 | 16 | 45 | 4.8 | 0.0 | 0.00 | 0.00 | 0.00 | 49 | 1021.5 |
| 20260504100335 | 16 | 45 | 1.6 | 0.0 | 0.00 | 0.00 | 0.00 | 48 | 1021.6 |
| 20260504090131 | 16 | 90 | 0.0 | 0.0 | 0.00 | 0.00 | 0.00 | 48 | 1021.1 |
| 20260504082008 | 17 | 90 | 0.0 | 0.0 | 0.00 | 0.00 | 0.00 | 48 | 1021.2 |
| 20260504081458 | 17 | 90 | 0.0 | 0.0 | 0.00 | 0.00 | 0.00 | 47 | 1021.1 |
| 20260504080947 | 17 | 90 | 0.0 | 0.0 | 0.00 | 0.00 | 0.00 | 47 | 1021.1 |
| 20260504080436 | 17 | 90 | 0.0 | 0.0 | 0.00 | 0.00 | 0.00 | 47 | 1021.0 |
| 20260504070232 | 17 | 90 | 0.0 | 0.0 | 0.00 | 0.00 | 0.00 | 47 | 1021.1 |
| 20260504050329 | 18 | 90 | 0.0 | 0.0 | 0.00 | 0.00 | 0.00 | 46 | 1022.6 |
| 20260504045819 | 18 | 90 | 0.0 | 0.0 | 0.00 | 0.00 | 0.00 | 46 | 1022.6 |
| 20260504045309 | 18 | 115 | 0.0 | 0.0 | 0.00 | 0.00 | 0.00 | 46 | 1022.7 |
| 20260504044758 | 18 | 135 | 0.0 | 0.0 | 0.00 | 0.00 | 0.00 | 46 | 1022.7 |
| 20260504044248 | 18 | 135 | 0.0 | 0.0 | 0.00 | 0.00 | 0.00 | 46 | 1022.8 |
| 20260504043738 | 18 | 135 | 0.0 | 0.0 | 0.00 | 0.00 | 0.00 | 46 | 1022.9 |
| 20260504043227 | 18 | 135 | 0.0 | 0.0 | 0.00 | 0.00 | 0.00 | 46 | 1023.1 |
| 20260504042717 | 18 | 135 | 0.0 | 0.0 | 0.00 | 0.00 | 0.00 | 46 | 1023.3 |
| 20260504042207 | 18 | 135 | 0.0 | 0.0 | 0.00 | 0.00 | 0.00 | 46 | 1023.3 |
| 20260504041657 | 18 | 135 | 0.0 | 0.0 | 0.00 | 0.00 | 0.00 | 46 | 1023.4 |
| 20260504041147 | 18 | 135 | 0.0 | 0.0 | 0.00 | 0.00 | 0.00 | 46 | 1023.5 |
| 20260504040637 | 18 | 135 | 0.0 | 0.0 | 0.00 | 0.00 | 0.00 | 46 | 1023.6 |
| 20260504040127 | 18 | 135 | 0.0 | 0.0 | 0.00 | 0.00 | 0.00 | 46 | 1023.7 |
| 20260504035617 | 18 | 135 | 0.0 | 0.0 | 0.00 | 0.00 | 0.00 | 46 | 1023.8 |
| 20260504035107 | 18 | 135 | 0.0 | 0.0 | 0.00 | 0.00 | 0.00 | 46 | 1024.0 |
| 20260504034556 | 18 | 135 | 0.0 | 0.0 | 0.00 | 0.00 | 0.00 | 45 | 1024.0 |
| 20260504034046 | 18 | 135 | 0.0 | 0.0 | 0.00 | 0.00 | 0.00 | 45 | 1023.9 |
| 20260504033536 | 19 | 135 | 0.0 | 0.0 | 0.00 | 0.00 | 0.00 | 45 | 1023.7 |
| 20260504033025 | 19 | 135 | 0.0 | 0.0 | 0.00 | 0.00 | 0.00 | 45 | 1023.8 |
| 20260504032514 | 19 | 135 | 0.0 | 0.0 | 0.00 | 0.00 | 0.00 | 45 | 1023.8 |
| 20260504032004 | 19 | 135 | 0.0 | 0.0 | 0.00 | 0.00 | 0.00 | 45 | 1023.8 |
| 20260504031454 | 19 | 135 | 0.0 | 0.0 | 0.00 | 0.00 | 0.00 | 45 | 1023.9 |
| 20260504030944 | 19 | 135 | 0.0 | 0.0 | 0.00 | 0.00 | 0.00 | 45 | 1023.9 |
| 20260504030434 | 19 | 135 | 0.0 | 0.0 | 0.00 | 0.00 | 0.00 | 45 | 1023.8 |
| 20260504025924 | 19 | 135 | 0.0 | 0.0 | 0.00 | 0.00 | 0.00 | 45 | 1023.8 |
| 20260504025413 | 19 | 135 | 0.0 | 0.0 | 0.00 | 0.00 | 0.00 | 45 | 1023.8 |
| 20260504024904 | 19 | 135 | 0.0 | 0.0 | 0.00 | 0.00 | 0.00 | 45 | 1023.7 |
| 20260504024353 | 19 | 135 | 0.0 | 0.0 | 0.00 | 0.00 | 0.00 | 45 | 1023.7 |
| 20260504023842 | 20 | 135 | 0.0 | 0.0 | 0.00 | 0.00 | 0.00 | 45 | 1023.7 |
| 20260504023332 | 20 | 135 | 0.0 | 0.0 | 0.00 | 0.00 | 0.00 | 45 | 1023.6 |
| 20260504022821 | 20 | 135 | 0.0 | 0.0 | 0.00 | 0.00 | 0.00 | 45 | 1023.6 |
| 20260504022311 | 20 | 135 | 0.0 | 0.0 | 0.00 | 0.00 | 0.00 | 44 | 1023.6 |
| 20260504021801 | 20 | 135 | 0.0 | 0.0 | 0.00 | 0.00 | 0.00 | 44 | 1023.6 |
| 20260504021251 | 20 | 135 | 0.0 | 0.0 | 0.00 | 0.00 | 0.00 | 44 | 1023.8 |
| 20260504020740 | 20 | 135 | 0.0 | 0.0 | 0.00 | 0.00 | 0.00 | 44 | 1023.9 |
| 20260504020230 | 20 | 135 | 0.0 | 0.0 | 0.00 | 0.00 | 0.00 | 44 | 1024.0 |
| 20260504015720 | 20 | 135 | 0.0 | 0.0 | 0.00 | 0.00 | 0.00 | 44 | 1024.1 |
| 20260504015209 | 20 | 135 | 0.0 | 0.0 | 0.00 | 0.00 | 0.00 | 44 | 1024.1 |
| 20260504014659 | 20 | 135 | 0.0 | 0.0 | 0.00 | 0.00 | 0.00 | 44 | 1024.2 |
| 20260504014149 | 20 | 135 | 0.0 | 0.0 | 0.00 | 0.00 | 0.00 | 44 | 1024.3 |
| 20260504013639 | 20 | 135 | 0.0 | 0.0 | 0.00 | 0.00 | 0.00 | 44 | 1024.3 |
| 20260504013129 | 20 | 135 | 0.0 | 0.0 | 0.00 | 0.00 | 0.00 | 44 | 1024.4 |
| 20260504012618 | 20 | 135 | 0.0 | 0.0 | 0.00 | 0.00 | 0.00 | 44 | 1024.4 |
| 20260504012108 | 20 | 135 | 0.0 | 0.0 | 0.00 | 0.00 | 0.00 | 44 | 1024.4 |
| 20260504011558 | 20 | 135 | 0.0 | 0.0 | 0.00 | 0.00 | 0.00 | 44 | 1024.4 |
| 20260504011047 | 20 | 135 | 0.0 | 0.0 | 0.00 | 0.00 | 0.00 | 44 | 1024.3 |
| 20260504010537 | 20 | 135 | 0.0 | 0.0 | 0.00 | 0.00 | 0.00 | 44 | 1024.3 |
| 20260504010027 | 20 | 135 | 0.0 | 0.0 | 0.00 | 0.00 | 0.00 | 44 | 1024.5 |
| 20260504005516 | 20 | 135 | 0.0 | 0.0 | 0.00 | 0.00 | 0.00 | 44 | 1024.5 |
| 20260504005006 | 20 | 135 | 0.0 | 0.0 | 0.00 | 0.00 | 0.00 | 44 | 1024.6 |
| 20260504004456 | 21 | 135 | 0.0 | 0.0 | 0.00 | 0.00 | 0.00 | 44 | 1024.5 |
| 20260504003435 | 21 | 135 | 0.0 | 0.0 | 0.00 | 0.00 | 0.00 | 44 | 1024.5 |
| 20260504002924 | 21 | 135 | 0.0 | 0.0 | 0.00 | 0.00 | 0.00 | 44 | 1024.5 |
| 20260504002414 | 21 | 135 | 0.0 | 0.0 | 0.00 | 0.00 | 0.00 | 44 | 1024.5 |
| 20260504001903 | 21 | 135 | 0.0 | 0.0 | 0.00 | 0.00 | 0.00 | 44 | 1024.6 |
| 20260504001353 | 21 | 135 | 0.0 | 0.0 | 0.00 | 0.00 | 0.00 | 44 | 1024.6 |
| 20260504000843 | 21 | 135 | 0.0 | 0.0 | 0.00 | 0.00 | 0.00 | 44 | 1024.7 |
| 20260504000332 | 21 | 135 | 0.0 | 0.0 | 0.00 | 0.00 | 0.00 | 44 | 1024.7 |
| 20260503235822 | 21 | 135 | 0.0 | 0.0 | 0.00 | 0.00 | 0.00 | 43 | 1024.7 |
| 20260503235311 | 21 | 135 | 0.0 | 0.0 | 0.00 | 0.00 | 0.00 | 43 | 1024.6 |
| 20260503234801 | 21 | 135 | 0.0 | 0.0 | 0.00 | 0.00 | 0.00 | 43 | 1024.6 |
| 20260503234251 | 21 | 135 | 0.0 | 0.0 | 0.00 | 0.00 | 0.00 | 43 | 1024.6 |
| 20260503233741 | 21 | 135 | 0.0 | 0.0 | 0.00 | 0.00 | 0.00 | 43 | 1024.6 |
| 20260503233230 | 21 | 135 | 0.0 | 0.0 | 0.00 | 0.00 | 0.00 | 43 | 1024.6 |
| 20260503232720 | 21 | 135 | 0.0 | 0.0 | 0.00 | 0.00 | 0.00 | 43 | 1024.7 |
| 20260503232210 | 21 | 135 | 0.0 | 0.0 | 0.00 | 0.00 | 0.00 | 43 | 1024.6 |
| 20260503231659 | 21 | 135 | 0.0 | 0.0 | 0.00 | 0.00 | 0.00 | 43 | 1024.6 |
| 20260503231149 | 21 | 135 | 0.0 | 0.0 | 0.00 | 0.00 | 0.00 | 43 | 1024.7 |
| 20260503230639 | 21 | 135 | 0.0 | 0.0 | 0.00 | 0.00 | 0.00 | 43 | 1024.7 |
| 20260503230128 | 21 | 135 | 0.0 | 0.0 | 0.00 | 0.00 | 0.00 | 43 | 1024.8 |
| 20260503225618 | 21 | 135 | 0.0 | 0.0 | 0.00 | 0.00 | 0.00 | 43 | 1024.7 |
| 20260503225107 | 21 | 135 | 0.0 | 0.0 | 0.00 | 0.00 | 0.00 | 43 | 1024.7 |
| 20260503224557 | 21 | 135 | 0.0 | 0.0 | 0.00 | 0.00 | 0.00 | 43 | 1024.7 |
| 20260503224047 | 21 | 135 | 0.0 | 0.0 | 0.00 | 0.00 | 0.00 | 43 | 1024.6 |
| 20260503223537 | 21 | 135 | 0.0 | 0.0 | 0.00 | 0.00 | 0.00 | 43 | 1024.6 |
| 20260503223027 | 21 | 135 | 0.0 | 0.0 | 0.00 | 0.00 | 0.00 | 43 | 1024.7 |
| 20260503222516 | 21 | 135 | 0.0 | 0.0 | 0.00 | 0.00 | 0.00 | 42 | 1024.6 |
| 20260503222005 | 21 | 135 | 0.0 | 0.0 | 0.00 | 0.00 | 0.00 | 42 | 1024.6 |
| 20260503221455 | 21 | 135 | 0.0 | 0.0 | 0.00 | 0.00 | 0.00 | 42 | 1024.7 |
| 20260503220945 | 21 | 135 | 0.0 | 0.0 | 0.00 | 0.00 | 0.00 | 42 | 1024.7 |
| 20260503220434 | 21 | 135 | 0.0 | 0.0 | 0.00 | 0.00 | 0.00 | 42 | 1024.7 |
| 20260503215923 | 22 | 135 | 0.0 | 0.0 | 0.00 | 0.00 | 0.00 | 42 | 1024.7 |
| 20260503215413 | 22 | 135 | 0.0 | 0.0 | 0.00 | 0.00 | 0.00 | 42 | 1024.7 |
| 20260503214902 | 22 | 135 | 0.0 | 0.0 | 0.00 | 0.00 | 0.00 | 41 | 1024.7 |
| 20260503214352 | 22 | 135 | 0.0 | 0.0 | 0.00 | 0.00 | 0.00 | 41 | 1024.6 |
| 20260503213842 | 22 | 135 | 0.0 | 0.0 | 0.00 | 0.00 | 0.00 | 40 | 1024.6 |
| 20260503213332 | 22 | 135 | 0.0 | 0.0 | 0.00 | 0.00 | 0.00 | 40 | 1024.5 |
| 20260503212821 | 22 | 135 | 0.0 | 0.0 | 0.00 | 0.00 | 0.00 | 40 | 1024.4 |
| 20260503212311 | 22 | 135 | 0.0 | 0.0 | 0.00 | 0.00 | 0.00 | 39 | 1024.4 |
| 20260503211800 | 22 | 135 | 0.0 | 0.0 | 0.00 | 0.00 | 0.00 | 39 | 1024.4 |
| 20260503211250 | 22 | 135 | 0.0 | 0.0 | 0.00 | 0.00 | 0.00 | 39 | 1024.4 |
| 20260503210740 | 22 | 135 | 0.0 | 0.0 | 0.00 | 0.00 | 0.00 | 38 | 1024.4 |
| 20260503210229 | 22 | 135 | 0.0 | 0.0 | 0.00 | 0.00 | 0.00 | 38 | 1024.4 |
| 20260503205719 | 22 | 135 | 0.0 | 0.0 | 0.00 | 0.00 | 0.00 | 38 | 1024.4 |
| 20260503205208 | 22 | 135 | 0.0 | 0.0 | 0.00 | 0.00 | 0.00 | 38 | 1024.3 |
| 20260503204658 | 22 | 135 | 0.0 | 0.0 | 0.00 | 0.00 | 0.00 | 38 | 1024.3 |
| 20260503204147 | 22 | 135 | 0.0 | 0.0 | 0.00 | 0.00 | 0.00 | 38 | 1024.3 |
| 20260503203636 | 22 | 135 | 3.2 | 0.0 | 0.00 | 0.00 | 0.00 | 38 | 1024.2 |
| 20260503203125 | 22 | 135 | 3.2 | 0.0 | 0.00 | 0.00 | 0.00 | 38 | 1024.2 |
| 20260503202615 | 22 | 135 | 3.2 | 0.0 | 0.00 | 0.00 | 0.00 | 38 | 1024.1 |
| 20260503202105 | 22 | 135 | 6.4 | 0.0 | 0.00 | 0.00 | 0.00 | 38 | 1024.1 |
| 20260503201555 | 22 | 135 | 8.0 | 0.0 | 0.00 | 0.00 | 0.00 | 37 | 1024.1 |
| 20260503201045 | 22 | 135 | 4.8 | 0.0 | 0.00 | 0.00 | 0.00 | 37 | 1024.1 |
| 20260503200534 | 22 | 135 | 1.6 | 0.0 | 0.00 | 0.00 | 0.00 | 37 | 1024.1 |
| 20260503200023 | 22 | 135 | 4.8 | 0.0 | 0.00 | 0.00 | 0.00 | 37 | 1024.1 |
| 20260503195513 | 22 | 118 | 11.3 | 0.0 | 0.00 | 0.00 | 0.00 | 36 | 1024.2 |
| 20260503195002 | 22 | 92 | 41.8 | 0.0 | 0.00 | 0.00 | 0.00 | 36 | 1024.2 |
| 20260503194450 | 22 | 135 | 1.6 | 0.0 | 0.00 | 0.00 | 0.00 | 36 | 1024.2 |
| 20260503193941 | 22 | 134 | 9.7 | 0.0 | 0.00 | 0.00 | 0.00 | 36 | 1024.2 |
| 20260503193431 | 22 | 135 | 3.2 | 0.0 | 0.00 | 0.00 | 0.00 | 37 | 1024.1 |
| 20260503192920 | 22 | 135 | 6.4 | 0.0 | 0.00 | 0.00 | 0.00 | 37 | 1024.2 |
| 20260503192410 | 22 | 135 | 6.4 | 0.0 | 0.00 | 0.00 | 0.00 | 36 | 1024.2 |
| 20260503191900 | 22 | 135 | 1.6 | 0.0 | 0.00 | 0.00 | 0.00 | 36 | 1024.1 |
| 20260503191350 | 22 | 135 | 1.6 | 0.0 | 0.00 | 0.00 | 0.00 | 36 | 1024.1 |
| 20260503190840 | 22 | 135 | 1.6 | 0.0 | 0.00 | 0.00 | 0.00 | 36 | 1024.2 |
| 20260503190329 | 22 | 135 | 6.4 | 0.0 | 0.00 | 0.00 | 0.00 | 36 | 1024.1 |
| 20260503185819 | 22 | 135 | 8.0 | 0.0 | 0.00 | 0.00 | 0.00 | 37 | 1024.1 |
| 20260503185309 | 22 | 117 | 3.2 | 0.0 | 0.00 | 0.00 | 0.00 | 36 | 1024.2 |
| 20260503184758 | 22 | 120 | 17.7 | 0.0 | 0.00 | 0.00 | 0.00 | 37 | 1024.3 |
| 20260503184247 | 22 | 186 | 11.3 | 0.0 | 0.00 | 0.00 | 0.00 | 37 | 1024.3 |
| 20260503183737 | 22 | 180 | 11.3 | 0.0 | 0.00 | 0.00 | 0.00 | 37 | 1024.4 |
| 20260503183227 | 22 | 180 | 19.3 | 0.0 | 0.00 | 0.00 | 0.00 | 37 | 1024.4 |
| 20260503182717 | 22 | 180 | 0.0 | 0.0 | 0.00 | 0.00 | 0.00 | 37 | 1024.4 |
| 20260503182207 | 22 | 180 | 0.0 | 0.0 | 0.00 | 0.00 | 0.00 | 37 | 1024.5 |
| 20260503181655 | 22 | 186 | 22.5 | 0.0 | 0.00 | 0.00 | 0.00 | 37 | 1024.5 |
| 20260503181145 | 22 | 180 | 6.4 | 0.0 | 0.00 | 0.00 | 0.00 | 37 | 1024.5 |
| 20260503180635 | 22 | 180 | 22.5 | 0.0 | 0.00 | 0.00 | 0.00 | 37 | 1024.5 |
| 20260503180125 | 22 | 219 | 6.4 | 0.0 | 0.00 | 0.00 | 0.00 | 37 | 1024.5 |
| 20260503175614 | 22 | 225 | 0.0 | 0.0 | 0.00 | 0.00 | 0.00 | 37 | 1024.4 |
| 20260503175104 | 22 | 225 | 8.0 | 0.0 | 0.00 | 0.00 | 0.00 | 36 | 1024.7 |
| 20260503174553 | 22 | 153 | 12.9 | 0.0 | 0.00 | 0.00 | 0.00 | 36 | 1024.7 |
| 20260503174042 | 22 | 90 | 8.0 | 0.0 | 0.00 | 0.00 | 0.00 | 36 | 1024.7 |